{"data":{"norad_id":63906,"intl_designator":"2025-095S","name":"STARLINK-33770","alt_names":[],"object_type":"PAYLOAD","status":"ACTIVE","operator":null,"country":"US","launch_date":"2025-05-10","launch_site_code":"AFETR","launch_vehicle":null,"mission":null,"orbit_class":"UNKNOWN","rcs_meters":null,"size_class":null,"mass_kg":null,"dimensions":null,"purposes":["comms"],"wikipedia_slug":null,"has_3d_model":false,"image_url":null,"decayed_at":null,"tle_current":{"epoch":"2026-05-24T08:38:42.945792Z","epoch_age_seconds":120552,"freshness":"FRESH","line1":"1 63906U 25095S   26144.36021928  .00014228  00000+0  52517-3 0  9992","line2":"2 63906  43.0025 108.6061 0002052 276.2238  83.8380 15.27605129 59351","mean_motion":15.27605129,"eccentricity":0.0002052,"inclination_deg":43.0025,"raan_deg":108.6061,"arg_perigee_deg":276.2238,"mean_anomaly_deg":83.838,"bstar":0.00052517,"rev_number":5935,"period_min":94.265198032076,"perigee_km":481.56595185824,"apogee_km":484.38175175182,"semimajor_km":6861.110851805,"source":"CELESTRAK","updated_at":"2026-05-25T13:38:20.178338Z"}}}